Regional Weather Roundup
Issued by NWS

Home | Current Version | Previous Version | Graphics & Text | Print | Product List | Glossary On
Versions: 1 2 3 4 5 6 7 8 9 10 11 12 13 14 15 16 17 18 19 20 21 22 23 24 25 26 27 28 29 30 31 32 33 34 35 36 37 38 39 40 41 42 43 44 45 46 47 48 49 50
000
ASUS44 KMEG 042110
RWRTN
TENNESSEE HOURLY STATE WEATHER ROUNDUP
NATIONAL WEATHER SERVICE MEMPHIS TN
400 PM CDT WED MAY 04 2016

TNZ002-004-019-021-049-052-054-088>092-042200-
WEST TENNESSEE

CITY           SKY/WX    TMP DP  RH WIND       PRES   REMARKS
MEMPHIS INTL   MOSUNNY   78  47  33 NW17G31   29.76F
NWS MEMPHIS      N/A     77 N/A N/A MISG        N/A
JACKSON        SUNNY     74  46  36 NW18G25   29.74F
DYERSBURG      MOSUNNY   73  48  40 N20G26    29.76R
UNION CITY     MOSUNNY   72  45  37 N20       29.76R
LEXINGTON      MOSUNNY   70  46  43 N13       29.73S
$$

TNZ008-025-027-028-033-062-065-066-042200-
NORTH MIDDLE TENNESSEE

CITY           SKY/WX    TMP DP  RH WIND       PRES   REMARKS
NASHVILLE      PTSUNNY   67  51  56 W13G25    29.71F
CLARKSVILLE    TSTM      61  50  67 NW23G33   29.74R
SMYRNA         MOSUNNY   65  56  72 NW10      29.73S
COOKEVILLE     CLOUDY    55  54  94 CALM      29.72F
CROSSVILLE     RAIN      54  49  83 NW5       29.75R
$$

TNZ061-075-076-078-094-096-097-042200-
SOUTH MIDDLE TENNESSEE

CITY           SKY/WX    TMP DP  RH WIND       PRES   REMARKS
FAYETTEVILLE   SUNNY     70  46  43 W14G23    29.69F
TULLAHOMA      CLOUDY    54  54 100 N13       29.75R
WINCHESTER     PTSUNNY   68  46  45 SW12      29.68F
MCMINNVILLE    CLOUDY    55  54  94 N3        29.73R
COLUMBIA       PTSUNNY  N/A N/A N/A VRB6      29.72F
SHELBYVILLE    PTSUNNY   57  57 100 NW6       29.75R
$$

TNZ017-018-042-046-047-042200-
NORTHEAST TENNESSEE

CITY           SKY/WX    TMP DP  RH WIND       PRES   REMARKS
TRI CITIES     MOSUNNY   64  39  39 SW10      29.67F
$$

TNZ012-013-036-069-073-074-042200-
CENTRAL EAST TENNESSEE

CITY           SKY/WX    TMP DP  RH WIND       PRES   REMARKS
KNOXVILLE      CLOUDY    66  40  38 SW10      29.66F
OAK RIDGE      LGT RAIN  65  41  41 NW6       29.70S
GATLINBURG     MOCLDY    66  39  37 SW8       29.67F
$$

TNZ083-085-099-042200-
SOUTHEAST TENNESSEE

CITY           SKY/WX    TMP DP  RH WIND       PRES   REMARKS
CHATTANOOGA    PTSUNNY   70  42  36 S13       29.68F
$$

SKY/WX REPORTED AS FAIR MEANS FEW OR NO CLOUDS BELOW
12 THOUSAND FEET.




USA.gov is the U.S. government's official web portal to all federal, state and local government web resources and services.